Location: Newark
(21.1200°N, 73.4000°E)
Time: 07:24:16
(UTC+00:00)

SR - Pass Details

Date: 02 February 2020
Orbit: 575 x 881 km, 66.7° (Epoch: 20 February)

Event Time Altitude Azimuth Distance (km) Brightness Sun altitude
Rises 01:23:37 0° 334° (NNW) 3,218 ? -5.2°
Reaches altitude 10° 01:26:07 10° 332° (NNW) 2,241 ? -4.7°
Maximum altitude 01:31:10 70° 250° (WSW) 733 ? -3.6°
Drops below altitude 10° 01:35:45 10° 166° (SSE) 2,039 ? -2.5°
Sets 01:37:57 0° 164° (SSE) 2,906 ? -2.0°
